Wind_Speed
40 40 39 37 35 32 31 30 30 31 31 32 33 34 35 35 35 35 35 35 35 36 36 36 37 37 38 38 39 40 41 42 43 44 45 46 46 47 47 47 47 47 47 47 47 47 48 48 48 48 48 49 49 49 49 50 50 50 51 51 52 52 52 53 53 53 53 53 53 53 53 54 53 53 53 53 53 53 53 53 52 51 51 50 49 48
39 38 36 34 32 30 30 30 30 30 31 32 33 34 34 34 34 34 35 35 35 36 36 36 37 37 38 39 40 41 42 44 45 45 46 46 47 47 47 47 47 47 47 47 47 47 48 48 48 48 49 49 49 50 50 50 51 51 51 52 52 52 53 53 53 53 53 53 53 53 53 53 53 53 53 52 52 52 51 51 50 49 49 48 47 46
36 34 32 31 30 29 29 29 30 30 31 32 33 33 33 34 34 34 35 35 36 36 37 37 38 39 40 41 42 43 44 45 45 46 46 46 47 47 47 47 47 47 47 48 48 48 48 48 49 49 49 50 50 50 50 51 51 51 52 52 52 52 52 52 52 52 52 52 52 52 52 52 52 52 52 51 51 50 49 49 48 47 46 45 45 44
33 31 30 29 29 29 29 29 30 30 31 32 33 33 33 33 34 34 35 35 36 37 38 38 39 40 41 42 43 44 45 45 45 46 46 46 47 47 47 47 47 48 48 48 48 49 49 49 49 50 50 50 50 51 51 51 51 51 52 52 52 52 52 52 52 52 51 51 51 51 51 51 51 51 50 50 49 48 47 46 45 44 44 43 42 42
31 30 29 29 29 29 29 29 30 31 31 32 33 33 33 34 34 35 35 36 37 38 39 40 41 42 43 43 44 44 45 45 45 46 46 46 47 47 47 48 48 48 49 49 49 50 50 50 51 51 51 51 51 51 51 51 51 51 51 51 51 51 51 51 51 50 50 50 50 50 50 50 49 49 48 47 47 46 45 44 43 42 41 41 40 40
30 29 30 29 28 29 29 30 30 31 32 32 33 33 34 34 35 35 36 37 38 39 40 41 42 42 43 43 44 44 44 45 45 46 46 46 47 47 48 48 49 49 50 50 50 51 51 51 52 52 52 52 51 51 51 51 51 50 50 50 50 50 50 49 49 49 49 49 48 48 48 47 46 46 45 44 43 43 42 41 40 40 39 39 38 38
28 29 29 29 29 29 30 30 31 32 32 33 33 34 34 35 36 36 38 39 40 41 42 42 42 42 42 43 43 43 44 44 45 46 46 47 47 48 48 49 49 50 50 50 51 51 51 52 52 52 52 51 51 50 50 50 49 49 49 49 48 48 48 48 47 47 47 47 46 46 45 44 43 42 42 41 40 40 39 38 38 37 37 37 36 36
27 28 29 29 29 30 31 31 32 32 33 33 34 35 35 36 37 38 39 40 41 42 42 42 42 42 41 41 42 43 44 44 45 46 47 48 48 48 49 49 49 50 50 51 51 51 51 51 51 51 51 50 49 49 49 48 48 47 47 47 46 46 46 45 45 45 44 44 43 43 42 41 40 39 39 38 37 37 36 36 36 35 35 35 35 35
26 28 29 30 30 31 31 32 32 33 33 34 35 36 37 38 39 41 41 42 43 43 42 42 41 40 40 41 42 43 44 45 46 47 48 48 49 49 49 49 49 50 50 50 50 50 50 50 50 49 49 48 47 47 46 45 45 44 44 43 43 43 42 42 42 41 41 40 39 39 38 37 37 36 36 36 35 35 35 35 35 35 35 35 35 35
27 28 29 30 31 31 32 33 33 34 34 35 36 37 38 40 41 42 42 42 42 42 41 40 40 40 41 41 43 44 45 47 48 48 49 49 49 49 49 49 49 49 49 49 48 48 48 47 47 46 45 45 44 43 42 41 41 40 39 39 38 38 38 37 37 36 36 35 35 35 34 34 34 34 34 34 34 34 34 34 35 35 35 35 35 35
27 29 30 31 31 32 32 33 34 35 36 37 38 39 40 41 41 41 40 40 40 40 40 41 41 41 41 43 44 45 46 48 48 49 49 49 48 48 48 48 47 47 46 45 45 44 44 43 42 42 41 40 39 38 37 36 36 35 35 34 34 33 33 33 33 32 32 32 32 32 32 33 33 33 33 34 34 34 35 35 35 35 35 36 35 35
28 29 30 31 32 33 33 35 36 37 38 38 39 40 40 40 40 39 39 39 39 40 41 42 42 43 43 44 45 46 47 48 48 48 47 47 46 45 45 44 44 43 42 41 40 39 39 38 37 36 35 34 34 33 32 31 31 30 30 30 30 30 30 30 30 31 31 31 32 32 33 33 34 34 34 35 35 35 36 36 36 36 36 35 35 35
29 30 31 32 33 34 35 36 37 38 39 39 38 38 38 39 39 39 40 40 41 41 42 43 43 44 44 45 45 46 46 46 46 45 43 42 41 41 40 40 39 38 36 36 35 34 33 32 32 31 30 29 28 28 27 27 27 27 27 28 28 29 29 29 30 31 31 32 33 33 34 34 34 35 35 35 35 36 36 35 35 35 35 34 34 33
31 32 33 34 35 36 37 37 38 38 38 38 38 38 38 39 40 41 41 42 43 43 44 44 44 44 44 44 44 44 44 43 42 40 38 37 36 36 35 35 34 32 31 30 29 29 28 27 26 26 25 24 24 24 24 25 25 26 26 27 28 29 29 30 31 32 32 33 34 34 34 35 35 35 35 35 35 35 35 34 34 34 33 33 32 32
33 34 35 36 36 37 37 37 37 37 37 38 38 39 40 40 41 42 43 43 44 45 45 44 43 42 41 40 40 40 40 38 36 34 33 32 31 31 31 30 29 27 26 25 24 24 23 22 22 21 21 21 22 22 23 24 25 25 26 27 28 29 30 31 32 33 33 34 34 34 34 34 34 34 34 34 34 33 33 33 33 32 32 31 31 31
35 36 36 37 37 37 37 37 36 37 37 38 39 40 41 42 43 44 44 44 45 45 44 42 40 38 36 36 36 35 35 33 31 29 28 27 27 27 26 25 24 22 21 20 20 19 19 18 18 18 19 19 20 21 22 24 25 26 27 28 29 30 31 32 32 33 33 33 33 34 34 33 33 33 33 33 33 32 32 32 32 31 31 30 30 30
36 36 37 37 36 37 37 37 37 38 39 39 40 41 42 43 44 44 45 44 44 42 40 38 35 32 31 30 31 31 30 29 28 26 24 23 23 23 22 21 20 18 17 16 16 16 16 16 16 17 18 19 20 21 23 24 25 26 27 28 29 30 31 31 32 32 32 33 33 33 33 33 33 33 32 32 32 32 32 31 31 31 30 30 30 29
37 37 37 36 36 37 37 38 39 39 40 41 42 43 43 44 44 44 43 42 40 37 35 33 30 28 26 25 26 27 27 26 24 22 20 19 19 19 18 17 16 15 14 14 14 15 15 15 16 16 17 19 20 21 23 24 25 26 27 28 29 29 30 31 31 31 32 32 32 33 33 33 33 32 32 32 32 32 32 31 31 30 30 30 29 29
37 37 37 37 37 37 38 39 39 40 41 42 42 43 43 43 43 41 39 37 35 32 30 27 26 24 22 22 23 23 23 22 21 19 17 15 15 16 16 15 15 14 13 14 14 15 15 15 16 16 18 19 20 21 22 23 25 25 26 27 28 29 29 30 31 31 31 32 32 33 33 33 33 33 33 33 32 32 32 31 31 31 30 30 30 29
37 38 38 38 38 38 39 40 41 41 42 42 42 42 41 40 39 37 34 32 29 27 25 23 21 20 19 19 20 20 19 18 17 16 14 13 13 14 14 15 14 14 14 14 15 15 15 15 16 16 18 19 20 21 22 23 24 25 26 27 27 28 29 30 30 31 32 32 33 33 33 34 34 34 34 34 33 33 33 32 32 31 31 30 30 30
38 38 39 40 40 40 40 41 42 42 42 42 41 40 38 36 34 31 29 26 24 22 20 19 18 17 16 16 17 17 17 16 16 15 13 12 13 14 15 15 15 15 14 15 15 16 15 15 16 16 17 18 20 21 22 23 24 25 25 26 27 28 29 29 30 31 32 32 33 33 34 34 34 35 35 34 34 34 34 33 33 32 32 31 31 31
38 39 40 41 41 41 41 42 42 42 42 40 38 36 34 31 28 26 24 22 20 19 17 15 15 14 14 14 15 15 15 16 16 15 15 13 13 14 16 16 16 16 15 15 15 16 15 15 16 16 17 18 19 21 22 23 23 24 25 26 27 28 29 29 30 31 32 32 33 33 34 34 35 35 35 35 35 35 34 34 34 33 33 33 32 32
39 40 41 42 42 42 42 42 41 41 39 37 34 32 29 26 23 21 20 18 17 15 14 13 12 13 13 13 14 15 16 16 17 17 17 15 14 14 16 17 17 16 15 15 15 16 15 15 16 16 18 19 20 21 22 23 24 25 25 26 27 28 29 30 30 31 32 32 33 33 34 34 34 34 35 35 35 35 35 35 34 34 34 34 33 32
41 41 42 42 42 42 41 40 39 37 35 32 30 27 24 22 19 18 16 15 14 12 11 11 11 12 12 13 14 15 16 17 18 19 18 17 15 15 16 17 17 16 15 15 16 16 16 15 16 17 18 19 20 21 22 23 24 25 26 26 27 28 29 30 31 31 32 32 32 33 33 33 34 34 34 34 34 35 35 35 35 35 35 34 34 33
42 42 42 42 41 40 39 37 35 33 30 28 25 22 20 18 16 14 13 12 11 10 10 10 10 11 12 13 14 15 17 18 19 20 20 18 17 16 16 17 17 17 16 16 16 16 16 16 16 17 18 20 21 21 22 23 24 25 26 27 27 28 29 30 30 31 31 31 32 32 32 32 33 33 34 34 34 34 34 34 35 35 35 35 35 34
43 42 41 40 39 37 35 33 30 28 25 23 21 18 16 14 13 12 11 11 10 10 9 10 10 11 12 13 13 15 16 18 19 20 20 20 18 17 17 18 18 18 17 17 17 17 17 17 17 17 18 19 20 21 22 23 23 24 25 26 27 28 29 30 30 30 31 31 31 31 32 32 32 33 33 34 34 34 34 34 35 35 35 35 35 34
42 41 39 37 35 33 30 28 25 23 21 19 17 15 13 12 11 10 10 10 10 10 10 10 11 11 12 12 13 14 16 18 19 20 20 20 19 18 18 19 19 20 19 18 18 17 17 17 17 17 17 18 19 20 21 21 22 23 24 25 26 27 28 29 30 30 30 31 31 31 31 32 32 33 33 33 34 34 34 34 35 35 35 35 35 35
40 38 36 33 30 28 25 23 21 20 18 16 14 12 10 10 10 10 10 10 10 10 11 11 11 11 12 12 12 14 16 18 19 20 20 20 20 19 19 20 20 21 21 20 19 18 17 17 17 17 17 17 18 18 19 20 21 22 23 24 25 26 27 28 29 29 30 30 30 31 31 32 32 33 33 33 34 34 34 34 35 35 35 35 35 34
36 34 31 29 26 23 21 19 18 17 15 14 12 10 9 9 9 10 10 10 10 11 11 11 12 12 12 12 12 13 15 17 19 20 20 20 20 19 19 20 21 21 22 22 20 19 17 16 17 17 17 17 17 18 18 19 20 21 22 23 24 25 26 27 28 29 29 30 30 30 31 31 32 32 33 33 33 33 33 34 34 34 35 35 34 34
31 29 27 25 23 21 19 17 16 15 13 12 11 10 9 9 10 10 10 10 10 11 11 11 12 12 12 12 12 12 14 17 19 20 20 20 19 19 19 20 21 22 23 24 23 20 18 17 17 17 18 18 18 18 18 19 20 21 22 22 23 24 25 26 27 28 28 29 29 30 30 31 31 32 32 32 32 32 32 33 33 33 33 33 33 32
27 25 23 21 20 18 17 16 15 13 12 11 10 10 10 10 10 10 10 10 10 10 11 11 11 12 12 12 12 12 13 16 19 20 20 20 20 20 20 20 21 22 24 25 25 24 21 19 18 18 19 19 19 19 19 20 20 21 22 22 23 23 24 26 27 27 28 28 29 29 30 30 31 31 31 31 31 31 31 31 32 32 32 32 31 31
23 21 20 19 18 17 16 14 13 12 11 11 10 10 10 10 10 10 10 10 10 11 11 11 11 11 12 13 13 13 14 17 19 20 20 21 20 20 21 21 22 23 24 25 26 26 25 23 21 20 20 20 19 19 20 20 21 21 22 22 23 23 24 25 26 27 28 28 28 29 29 30 30 30 31 31 31 30 30 30 30 30 31 31 31 30
20 19 18 17 16 15 14 13 13 12 11 11 10 10 10 10 10 10 10 10 10 11 11 11 11 12 12 13 13 14 15 17 19 20 21 21 21 21 21 22 23 23 24 25 26 27 27 26 25 23 22 21 21 20 21 21 22 22 22 23 23 24 25 26 27 27 28 28 28 29 29 29 30 30 30 30 30 30 29 29 29 29 30 30 30 30
18 17 17 16 15 14 13 12 12 11 11 11 10 10 10 10 10 10 10 10 10 11 11 11 12 12 13 13 13 14 16 17 19 20 21 21 21 22 22 22 23 24 25 25 26 27 27 28 27 26 25 23 22 22 22 22 23 23 23 24 24 25 25 26 27 28 28 29 29 29 29 30 30 30 29 29 29 29 29 28 28 28 29 29 29 30
17 16 15 14 14 13 12 12 11 11 11 11 11 11 10 10 10 10 10 10 10 11 11 12 13 13 13 14 14 14 15 17 19 21 21 22 22 23 23 23 24 25 26 26 27 27 28 28 28 28 28 26 25 24 24 24 24 24 25 25 25 26 26 27 28 28 29 29 29 30 30 30 30 29 29 29 29 28 28 28 28 27 28 28 28 29
15 15 14 14 13 12 12 12 11 11 11 11 11 11 11 11 10 10 10 11 11 11 12 12 13 14 14 15 15 15 16 17 19 21 22 23 23 24 24 24 25 26 27 27 28 29 29 29 29 30 30 29 28 27 26 26 26 26 26 26 26 26 27 28 28 29 29 30 30 30 30 30 30 29 29 29 28 28 28 27 27 27 27 27 28 28
15 14 13 13 12 12 12 12 11 11 11 11 11 11 11 11 11 11 11 11 11 12 12 13 13 14 15 15 16 16 17 18 19 21 22 23 24 25 25 26 26 27 28 29 29 30 31 31 31 31 31 31 31 30 29 28 27 27 27 27 27 27 27 27 28 29 29 30 30 30 30 30 30 30 29 29 29 28 28 27 27 27 27 27 27 27
14 13 13 13 12 12 12 12 12 12 12 12 11 11 11 11 11 11 11 11 12 12 13 13 14 14 15 16 16 17 18 19 20 22 23 24 25 26 27 27 27 28 29 30 31 31 32 32 33 33 33 32 32 32 31 30 30 29 28 28 27 27 27 27 28 29 29 30 30 30 30 31 30 30 30 29 29 28 28 27 27 26 26 26 26 27
14 13 13 13 13 12 12 12 12 12 12 12 12 12 12 12 11 11 12 12 13 13 14 14 14 15 15 16 17 18 19 20 21 23 24 25 27 27 28 28 29 29 30 31 32 32 33 33 34 34 34 34 34 33 32 32 31 31 30 28 27 26 26 27 27 28 29 30 30 31 31 31 31 31 30 30 29 28 28 27 26 26 26 26 26 26
14 14 13 13 13 13 13 13 13 13 12 12 12 12 12 12 12 12 12 13 14 14 15 15 15 16 16 17 17 19 20 21 22 24 25 26 28 29 29 30 30 30 31 31 32 33 34 34 35 35 35 36 35 35 33 32 32 32 31 30 29 27 26 26 27 28 29 30 30 31 31 31 31 31 30 30 29 28 28 27 27 26 26 26 26 26
14 14 14 14 14 13 13 13 13 13 13 13 13 13 13 13 13 14 14 14 15 16 16 17 17 17 17 18 18 19 21 22 23 24 26 27 28 29 30 31 31 31 32 32 33 33 34 34 35 35 36 36 36 36 34 33 32 32 32 31 30 28 26 26 26 27 29 30 30 31 32 32 32 31 30 30 29 28 28 27 27 26 26 26 26 26
14 14 14 14 14 14 14 14 14 14 14 14 14 14 14 14 15 15 15 16 16 17 18 18 19 19 19 19 20 21 22 23 24 25 26 27 29 30 30 31 32 32 32 33 33 33 34 35 35 36 36 37 37 36 35 33 32 32 32 32 31 29 27 26 26 27 29 30 31 32 32 32 32 32 31 30 29 28 28 27 26 26 26 26 26 26
15 15 15 15 15 14 14 14 14 14 14 14 14 15 15 15 16 16 16 17 17 18 19 20 20 20 20 20 21 21 23 24 25 26 27 28 29 30 31 31 32 32 33 33 33 33 34 34 35 36 36 37 37 37 36 34 32 31 31 31 31 30 29 27 27 27 29 30 31 32 32 33 32 32 31 30 29 28 27 26 26 25 24 24 24 24
15 15 15 15 15 15 15 15 15 15 15 15 15 16 16 17 17 18 18 18 19 20 20 21 22 22 22 22 22 23 23 24 25 26 27 28 29 30 30 31 32 32 33 33 33 33 34 34 35 36 36 37 37 37 36 34 33 32 31 31 31 31 30 29 29 29 30 30 31 32 32 33 33 32 31 30 29 28 27 26 25 24 23 23 23 23
15 15 15 15 15 15 15 15 15 15 15 16 16 17 17 18 18 19 19 20 21 21 22 23 23 23 23 24 24 24 24 25 25 26 27 28 29 29 30 31 31 32 32 33 33 34 34 35 35 36 36 37 37 36 36 35 34 33 31 31 30 30 30 30 30 31 31 31 32 32 32 33 33 32 31 30 29 27 26 25 23 22 21 21 21 21
16 16 16 16 16 16 16 16 16 16 16 17 17 18 18 19 20 20 21 22 22 23 23 24 24 25 25 25 25 25 25 26 26 26 27 28 28 29 30 30 31 31 32 33 33 34 34 35 36 36 37 37 36 36 35 35 34 33 32 31 31 30 30 30 30 31 32 32 32 32 32 33 33 32 31 30 29 27 25 24 22 21 20 20 19 20
16 16 16 16 16 16 16 16 17 17 17 17 18 19 19 20 21 21 22 23 24 24 25 25 26 26 26 26 26 27 26 26 26 26 27 28 28 29 30 30 31 31 32 32 33 34 35 35 36 37 37 37 36 36 35 34 34 33 33 32 31 31 31 31 31 32 32 33 33 33 33 33 33 32 32 30 29 27 25 23 22 21 20 19 19 19
16 16 16 16 16 17 17 17 17 18 18 18 19 20 20 21 22 23 23 24 25 25 26 26 26 26 27 27 27 27 27 27 27 27 27 28 29 29 30 30 31 31 32 33 33 34 35 35 36 36 37 37 37 36 34 33 33 33 32 32 31 31 31 31 31 32 33 33 33 33 33 33 33 33 32 31 30 28 26 24 22 21 20 20 19 19
16 16 17 17 17 17 17 18 18 19 19 19 20 20 21 22 23 24 24 25 26 26 26 27 27 27 27 27 28 28 28 28 28 28 28 29 29 30 30 31 31 32 32 33 34 34 35 36 36 36 36 36 36 35 34 33 32 32 32 32 32 32 32 32 32 33 33 34 34 34 34 34 34 34 34 33 32 30 27 25 23 22 21 21 20 20
17 17 17 17 17 18 18 19 19 19 20 20 21 21 22 23 23 24 25 26 26 27 27 27 27 27 27 28 28 28 29 29 29 29 29 29 30 30 31 31 32 32 33 34 34 35 36 36 36 35 35 35 35 35 34 33 32 31 31 31 32 33 33 34 34 34 35 35 35 35 35 35 35 35 35 35 34 32 30 27 25 23 22 22 21 21
17 17 18 18 18 19 19 19 20 20 21 21 21 22 22 23 24 25 25 26 26 27 27 27 28 28 28 28 29 29 29 29 29 29 30 30 30 31 31 32 32 33 34 34 35 36 36 36 36 34 33 32 33 33 33 33 32 32 32 32 32 33 34 35 35 36 36 36 37 37 36 36 36 36 36 36 35 34 32 30 27 25 24 23 23 22
Wind_Direction
282 282 281 280 279 278 277 277 277 277 278 279 279 280 280 281 282 283 284 285 285 285 285 285 285 285 285 285 285 285 286 286 287 287 287 287 287 287 287 287 287 287 287 286 286 286 286 286 286 286 286 286 286 286 285 285 285 285 285 285 285 284 284 284 284 284 284 284 284 283 283 283 282 282 281 281 280 280 280 280 280 280 280 280 280 280
281 281 280 279 278 278 278 278 279 280 281 281 281 281 281 281 282 284 285 285 285 285 285 285 285 285 285 286 286 287 287 287 287 287 287 287 288 288 288 287 287 287 287 287 287 286 286 286 286 286 286 285 285 285 285 285 285 285 284 284 284 284 284 284 283 283 283 283 283 282 282 282 281 281 281 280 280 280 280 280 280 280 280 280 279 279
280 279 278 278 279 280 281 282 282 282 282 282 281 280 281 282 283 284 285 286 286 286 286 286 286 286 287 287 288 288 288 288 288 288 288 288 288 288 288 288 288 288 287 287 287 287 286 286 286 286 285 285 285 285 285 285 284 284 284 284 284 284 283 283 283 283 283 283 282 282 282 281 281 281 280 280 280 280 280 280 280 280 280 279 278 278
278 278 279 280 282 283 283 284 284 283 282 281 281 281 282 284 285 285 286 286 286 286 287 287 287 288 288 289 289 289 289 289 289 289 290 289 289 289 289 288 288 288 288 287 287 287 286 286 286 286 285 285 285 285 285 285 284 284 284 284 284 284 284 283 283 283 283 282 282 282 281 281 281 281 281 281 281 281 281 280 280 280 279 278 277 277
277 279 281 283 284 284 284 284 283 282 281 281 282 283 284 284 285 286 286 286 286 287 287 288 288 289 289 290 290 290 290 290 290 290 290 289 289 289 289 288 288 288 287 287 287 287 286 286 286 286 286 285 285 285 285 285 285 285 284 284 284 284 284 284 283 283 283 282 282 282 281 281 281 281 281 281 281 281 281 280 279 279 278 277 276 275
278 280 282 283 284 284 283 282 281 281 281 282 283 283 284 285 285 285 286 286 287 287 288 289 289 290 291 291 291 292 292 291 291 290 289 289 288 288 288 288 288 287 287 287 287 287 287 286 286 286 286 286 286 286 286 285 285 285 285 285 285 285 284 284 284 283 283 282 282 282 282 282 282 281 281 281 281 280 280 279 278 277 277 276 275 274
279 281 282 282 283 282 282 281 281 281 282 283 284 285 285 286 286 287 287 287 288 288 289 290 291 291 292 292 292 292 291 290 289 289 288 288 287 287 287 287 287 287 287 287 287 287 287 287 286 286 286 286 286 286 286 286 286 286 286 286 285 285 284 284 283 283 282 282 282 282 282 281 281 281 280 280 279 279 278 277 277 276 275 275 274 274
281 282 282 282 282 282 282 282 282 283 284 285 286 287 287 288 288 288 289 289 289 290 291 291 292 292 292 292 291 289 288 288 287 287 287 287 286 287 287 287 287 287 287 287 287 287 287 287 287 287 287 287 288 288 288 287 287 287 286 286 285 285 284 283 283 282 282 282 281 281 281 280 280 280 279 278 278 278 277 277 276 276 276 275 275 275
282 282 282 282 282 282 283 283 284 285 286 287 288 289 289 289 290 290 290 291 291 291 292 292 292 291 290 289 288 287 287 286 286 286 286 286 286 286 286 287 287 287 287 287 287 287 287 288 288 288 289 289 289 289 289 289 288 288 287 286 285 285 284 283 283 282 282 282 281 281 281 280 280 280 280 279 279 279 279 279 279 279 279 279 279 279
280 281 281 281 282 283 284 286 286 287 287 288 289 290 290 290 291 291 291 292 292 292 291 291 290 289 288 288 287 287 286 286 286 286 286 287 287 287 287 287 287 287 288 288 288 288 289 289 290 290 290 290 290 290 290 289 289 288 288 287 286 286 285 285 284 284 284 283 283 283 283 283 283 283 283 284 284 284 284 284 284 284 284 284 284 283
280 281 282 283 284 285 286 287 288 288 289 289 290 290 290 291 291 291 291 291 291 291 290 290 289 288 288 287 287 287 287 287 287 288 288 288 288 289 289 288 288 288 289 289 289 290 290 291 291 291 291 291 291 291 291 290 290 289 289 288 288 288 287 287 287 287 287 287 287 287 288 288 288 289 289 289 289 289 289 289 289 289 288 288 288 287
282 283 284 285 286 287 288 288 289 289 290 290 291 292 292 292 291 291 290 290 290 290 289 289 289 289 289 289 289 289 288 288 289 289 289 289 290 290 290 290 290 290 290 291 291 292 292 292 292 292 292 292 292 292 292 292 291 291 291 291 291 291 291 291 291 291 291 292 292 292 292 293 293 293 293 293 293 292 292 292 292 291 291 291 290 290
285 285 286 286 287 288 289 289 290 290 291 292 293 293 292 292 291 291 291 291 290 290 290 290 291 291 291 291 291 290 290 290 289 290 290 290 291 291 291 291 291 292 293 293 293 293 293 293 293 293 294 294 294 294 294 294 294 294 294 294 294 294 294 294 294 294 295 295 295 295 295 295 295 295 294 294 294 294 294 293 293 293 292 292 291 290
287 287 287 288 288 289 290 291 292 293 293 294 293 293 292 292 292 292 293 293 292 292 292 293 293 293 293 293 292 291 291 291 291 291 292 293 293 293 293 294 294 294 295 295 295 294 294 294 295 295 296 296 296 296 297 296 296 296 296 296 296 296 296 296 296 296 296 296 296 295 295 295 295 295 295 295 295 295 295 294 294 293 293 292 291 290
288 288 288 289 290 291 292 293 294 294 294 294 294 294 294 294 294 294 294 294 294 295 295 295 295 295 294 293 292 292 292 292 293 294 296 296 296 296 296 297 297 297 298 297 296 295 296 296 296 297 298 298 298 298 298 298 298 297 297 297 297 297 297 297 296 296 296 296 296 296 296 296 296 297 297 297 296 296 296 295 294 294 293 292 290 289
288 289 291 292 293 293 294 294 295 295 295 295 295 295 295 295 295 295 296 296 296 296 296 296 296 296 295 294 293 293 294 295 297 299 300 300 299 299 299 299 299 300 300 299 298 298 298 298 299 299 300 300 299 299 298 298 297 297 296 296 296 296 296 296 296 296 297 297 297 297 298 298 298 298 298 298 298 297 297 296 295 294 293 291 290 289
291 292 293 294 295 295 295 295 296 296 296 296 296 296 296 296 297 297 297 297 297 297 297 296 296 295 295 294 294 295 297 299 301 303 304 302 300 300 300 301 301 302 302 301 300 300 300 301 301 301 300 300 299 298 297 296 296 296 296 296 296 296 296 297 297 297 298 298 298 299 299 300 300 300 300 299 299 298 297 296 295 294 292 291 290 288
293 294 295 295 295 295 296 296 297 297 297 297 297 297 297 297 298 298 298 298 297 297 297 297 297 297 297 297 296 297 300 302 304 305 305 303 300 300 302 302 303 304 305 303 302 301 302 302 302 301 300 298 297 296 295 295 295 295 295 295 296 296 297 297 298 298 299 300 300 300 301 301 301 301 300 300 299 298 297 296 295 294 292 291 289 288
294 295 295 295 295 296 296 297 297 297 297 297 297 297 298 298 298 298 297 297 297 297 297 298 299 300 301 299 298 299 302 303 304 305 305 303 300 300 303 305 306 307 307 305 303 303 303 303 301 300 298 297 295 295 294 294 295 295 295 296 297 297 298 299 299 300 300 301 301 301 302 302 302 302 301 301 300 299 298 297 296 295 293 291 290 288
295 295 295 295 296 297 297 297 298 297 297 297 297 298 298 298 297 297 297 297 297 297 299 301 302 303 303 301 300 300 303 303 303 303 304 304 302 303 306 307 308 309 308 306 304 304 303 302 301 299 297 296 295 294 294 295 295 296 296 297 298 298 299 300 300 301 301 301 302 302 302 302 303 303 303 302 302 301 300 299 297 296 294 293 291 289
295 296 296 297 297 298 298 298 298 298 298 298 298 298 297 297 296 296 296 296 297 299 301 303 304 304 303 300 299 299 302 302 303 304 306 307 307 307 309 310 310 309 308 306 304 304 302 301 299 298 296 295 295 294 295 295 296 297 297 298 298 299 299 300 300 300 301 301 301 302 302 303 303 303 303 303 303 302 301 300 299 297 296 294 292 291
296 297 297 297 298 299 299 299 299 298 298 298 298 297 297 296 296 295 296 297 298 301 303 304 304 302 301 299 298 299 302 304 305 306 309 311 310 309 309 310 309 308 307 305 303 302 301 300 298 297 296 295 294 295 295 296 296 297 297 298 298 298 298 298 299 299 300 300 301 302 302 303 303 303 303 303 303 302 301 300 299 298 296 295 293 292
297 297 298 298 299 299 299 299 299 298 298 297 297 296 295 295 295 295 296 297 299 301 303 303 302 300 299 299 299 301 303 305 307 308 309 311 310 308 308 308 307 306 305 303 302 300 299 298 297 297 295 294 294 294 295 295 296 296 296 296 296 297 297 297 297 298 299 299 300 301 301 301 302 302 302 301 301 301 300 300 299 298 296 295 293 292
297 297 298 298 298 299 298 298 298 297 296 295 294 294 294 294 294 294 295 296 297 299 300 299 298 297 298 300 301 303 304 306 307 308 308 309 310 309 307 306 305 304 303 302 301 300 299 298 297 296 295 294 294 294 294 295 295 295 295 295 295 295 295 295 296 297 297 298 298 299 299 299 299 299 299 299 299 299 299 298 298 297 296 295 293 293
296 296 297 297 297 297 297 296 295 294 293 292 291 292 292 292 292 292 292 294 295 295 296 296 296 296 298 302 303 303 303 305 306 306 307 309 310 309 308 307 306 305 304 303 302 301 300 299 298 296 295 294 294 294 294 294 294 294 294 294 294 294 294 294 295 295 295 295 296 296 296 297 297 298 298 298 299 298 298 298 297 296 295 294 294 293
295 296 296 296 296 295 294 293 292 290 289 288 288 289 289 290 290 290 291 292 292 293 293 295 295 296 299 302 303 302 302 303 304 305 307 309 310 311 310 309 308 308 307 306 305 304 304 302 301 299 296 295 295 295 295 294 294 294 293 293 293 293 293 293 293 293 293 294 294 295 295 296 297 298 299 299 299 299 298 298 297 296 295 294 293 293
295 295 295 294 293 292 290 289 287 286 285 285 285 286 285 285 286 286 286 288 289 291 294 296 297 299 301 302 302 300 300 301 302 305 308 310 312 313 314 312 311 311 310 310 309 309 309 307 305 302 300 298 297 297 296 295 295 294 293 293 292 292 292 292 292 292 293 293 294 295 296 297 298 299 299 300 299 299 298 297 296 295 294 294 293 293
294 294 293 292 291 289 287 285 284 283 283 283 283 282 280 280 280 280 281 284 288 292 295 297 299 300 301 301 300 299 299 300 301 305 309 311 313 316 316 315 314 313 313 312 312 313 313 312 310 307 304 303 302 300 299 297 295 294 293 293 292 292 292 292 293 293 294 295 296 297 298 298 299 300 300 299 299 298 298 297 296 295 294 293 293 293
294 293 292 291 289 287 285 283 282 281 280 280 279 277 274 274 275 277 279 284 289 293 296 298 300 301 301 300 300 298 298 298 302 306 310 311 314 317 317 316 315 314 314 313 314 315 316 315 313 311 309 308 306 304 301 299 297 295 294 294 294 294 294 294 294 294 295 296 297 297 298 299 299 299 299 299 298 298 297 296 294 294 293 293 293 293
292 291 290 289 288 286 284 282 280 278 276 274 272 270 268 270 272 276 280 285 290 293 296 297 299 299 301 301 301 299 297 299 304 308 310 312 315 317 318 317 316 316 315 315 315 316 317 317 316 314 313 312 310 307 304 302 299 297 296 295 295 295 295 295 295 295 296 296 297 298 299 299 299 299 299 298 298 297 296 295 294 293 292 292 292 292
288 287 286 284 283 281 280 277 275 271 269 266 265 265 266 269 273 277 282 286 290 292 294 295 297 299 301 303 304 302 299 302 306 310 312 314 316 319 319 319 318 318 317 317 317 317 318 318 318 317 315 314 313 310 308 305 302 300 298 297 297 296 296 295 295 295 296 297 297 298 299 299 299 299 299 298 298 297 296 295 294 293 293 293 293 292
285 283 281 278 276 273 271 268 266 263 261 261 262 264 267 271 274 278 282 285 288 290 293 294 297 300 304 307 309 309 307 306 309 312 314 316 318 320 320 320 319 319 318 317 317 317 318 319 319 318 317 316 315 313 311 308 305 303 301 300 299 298 297 297 296 296 297 297 298 299 299 300 300 300 299 299 298 298 297 296 295 295 294 294 294 293
282 279 276 273 268 265 262 259 257 256 257 258 261 264 268 272 275 278 281 285 288 291 294 298 301 305 308 311 313 314 312 311 311 313 315 316 318 319 320 319 318 318 317 316 316 317 317 318 319 319 319 318 318 317 314 312 310 308 306 304 302 301 300 299 298 298 298 299 300 300 301 301 301 301 301 300 300 299 298 297 297 296 296 295 295 294
277 273 270 267 263 258 255 253 252 253 255 258 262 265 269 272 276 279 282 286 291 296 300 303 307 310 312 313 314 314 313 312 312 314 315 315 317 318 318 318 317 316 315 315 315 315 316 318 319 319 319 320 320 320 318 316 315 313 311 309 307 305 303 302 301 300 300 301 302 302 302 302 302 302 302 302 301 300 299 299 298 297 296 296 295 294
272 268 265 261 257 254 251 251 251 253 256 259 262 266 270 274 277 282 286 291 296 301 306 308 311 312 313 313 314 314 313 311 311 313 314 314 315 316 316 316 316 315 314 314 315 315 316 317 318 319 320 321 321 321 321 320 318 317 315 313 311 309 307 305 304 303 303 303 303 303 303 303 303 303 303 302 302 301 301 300 299 298 297 296 296 295
268 264 260 256 253 251 250 251 252 255 258 261 265 268 272 277 281 286 291 296 301 305 308 310 312 312 312 313 313 313 311 310 310 312 312 313 314 314 315 315 315 314 314 314 315 316 316 318 319 319 320 321 322 322 322 321 320 319 318 316 313 311 309 307 306 305 305 304 304 304 304 304 304 304 304 304 303 303 302 302 301 300 299 297 297 296
264 260 257 254 252 251 252 253 255 258 261 264 268 272 275 279 284 288 293 298 302 305 306 308 310 310 311 312 312 311 311 310 310 310 311 312 312 313 313 314 314 314 314 314 315 316 317 318 319 319 320 321 321 322 323 322 321 320 319 317 315 313 310 308 307 306 306 305 305 305 305 305 305 305 306 306 305 305 304 304 303 302 300 299 299 298
263 259 256 254 253 253 254 256 258 261 264 267 271 274 278 281 286 290 294 297 300 302 304 305 306 307 308 309 310 310 310 309 309 309 309 310 311 311 312 313 313 314 314 314 315 316 317 317 318 319 320 320 321 321 322 322 322 321 319 317 315 313 311 309 308 307 306 306 306 306 306 306 307 307 307 307 307 306 306 305 304 302 301 299 299 298
262 259 256 255 255 255 256 259 261 264 267 270 273 276 280 283 287 290 294 296 299 300 301 302 304 305 306 307 308 308 308 307 307 307 308 309 309 310 311 311 312 312 313 313 314 315 316 316 317 318 319 319 319 320 321 322 322 320 318 316 314 313 311 310 309 309 308 308 307 307 307 307 307 308 308 308 308 307 306 305 304 302 301 299 298 297
261 259 257 256 256 257 258 260 263 266 269 272 275 278 281 285 288 291 294 296 298 299 300 301 302 304 305 306 306 306 306 305 306 306 306 307 308 308 309 309 310 311 311 312 312 313 314 315 316 316 317 317 318 318 319 320 321 320 318 316 315 313 313 312 311 310 309 309 309 308 308 308 308 308 308 309 309 308 307 306 304 303 301 300 298 297
260 258 258 257 258 258 260 262 265 268 271 274 276 279 282 285 288 290 293 295 297 298 299 300 301 303 304 305 305 304 304 304 304 304 304 305 305 306 307 307 308 308 309 309 310 311 312 313 313 314 315 315 315 316 317 319 319 319 318 316 315 314 314 314 313 312 310 310 310 309 309 309 309 309 309 309 309 308 307 306 305 304 302 301 299 297
260 259 258 258 259 260 261 264 266 269 272 275 278 280 283 286 288 290 292 294 295 297 298 299 300 301 302 303 303 303 302 302 302 302 303 303 303 304 304 305 306 306 307 307 308 309 310 310 311 311 312 312 312 313 315 317 318 318 317 316 315 314 314 315 314 313 311 311 311 310 310 309 309 309 309 309 309 308 306 305 304 303 302 300 298 296
259 259 259 259 260 261 263 265 268 270 273 276 279 282 285 287 289 291 293 294 295 296 297 298 299 300 301 301 301 301 301 301 301 301 301 301 301 302 302 303 303 304 304 305 306 307 307 307 308 309 309 310 311 312 314 316 317 317 316 315 314 314 314 315 315 313 312 312 311 311 310 309 309 308 308 308 308 306 305 304 302 301 299 297 295 293
260 260 260 260 261 263 265 267 270 272 275 278 281 284 286 288 290 292 293 294 295 296 296 297 298 299 300 300 300 299 299 299 299 300 300 300 300 300 300 301 301 302 302 302 303 304 304 305 306 306 307 308 309 311 313 314 315 315 315 314 314 314 315 316 316 315 313 312 311 311 310 309 308 308 308 307 306 305 303 302 300 299 297 294 292 289
261 260 261 262 263 265 266 269 271 275 277 280 282 284 287 289 291 292 293 294 295 296 296 297 298 299 300 300 300 299 299 299 299 299 299 299 299 299 299 299 300 300 300 301 301 302 302 303 304 305 306 307 308 310 312 313 314 313 313 313 313 313 314 316 316 315 314 313 312 311 310 309 308 307 307 306 304 303 302 301 299 297 295 292 289 286
262 262 262 263 265 267 269 271 274 276 279 281 283 285 287 289 291 292 294 295 296 296 297 298 299 300 300 300 300 300 300 300 300 300 299 299 299 299 298 298 299 299 299 299 300 301 301 302 303 304 305 307 308 310 311 312 312 311 311 311 312 312 314 315 316 315 314 313 313 312 310 309 308 307 306 305 304 303 301 300 299 297 295 292 288 284
263 263 263 265 267 269 271 273 276 278 280 282 284 286 288 290 292 293 294 295 296 297 298 299 300 301 301 301 301 301 301 301 301 300 300 299 299 298 298 298 298 298 298 299 299 300 301 302 303 304 305 306 307 309 310 310 310 309 309 310 311 312 313 315 315 315 314 313 313 312 311 310 309 308 306 305 304 303 303 302 301 300 298 295 290 286
265 265 266 267 269 271 273 276 277 279 281 283 285 287 289 291 293 294 295 296 297 298 299 299 300 301 302 302 302 302 302 302 302 301 301 300 299 298 298 298 298 298 298 298 298 299 300 301 302 303 304 305 306 307 308 308 307 307 308 309 311 312 313 314 315 314 314 313 313 313 312 312 311 310 309 308 307 306 305 305 304 303 301 298 294 289
267 268 269 270 272 274 275 277 279 281 283 285 287 289 291 293 294 295 296 297 298 298 299 300 301 301 302 302 302 302 303 303 303 302 302 301 300 299 298 298 298 297 297 298 298 298 299 300 300 302 303 304 305 305 306 306 306 306 307 309 311 312 313 314 314 314 314 314 314 314 314 314 314 314 313 311 310 309 308 308 307 306 304 301 297 292
270 270 271 273 274 276 277 279 281 283 285 287 289 291 293 294 295 296 297 297 298 299 299 300 301 301 302 302 302 302 303 303 303 303 302 301 300 299 299 298 297 297 297 297 297 297 297 298 299 300 302 303 304 305 305 305 305 306 307 309 311 312 313 314 314 315 315 315 315 316 316 317 316 315 314 313 312 311 310 310 309 308 306 302 298 294
273 273 274 275 277 278 280 281 283 285 288 289 291 293 294 295 295 296 297 297 298 298 299 300 301 301 302 302 302 302 303 303 303 303 302 301 300 299 298 298 297 297 296 297 296 297 297 297 298 300 301 303 305 305 305 306 306 307 308 310 311 312 313 314 315 315 316 316 317 318 318 318 317 316 315 313 312 311 311 310 310 309 307 303 299 294
Height
3052 3052 3052 3052 3052 3052 3052 3052 3052 3052 3052 3052 3052 3051 3051 3050 3050 3049 3049 3049 3048 3048 3048 3048 3047 3047 3046 3046 3046 3045 3044 3044 3043 3042 3041 3041 3040 3039 3039 3038 3038 3037 3037 3036 3036 3035 3035 3034 3034 3033 3032 3031 3031 3030 3030 3029 3028 3028 3027 3026 3026 3025 3024 3024 3023 3022 3021 3021 3020 3019 3018 3018 3018 3017 3017 3016 3016 3015 3015 3014 3014 3014 3013 3013 3012 3012
3050 3050 3049 3049 3049 3049 3049 3049 3049 3049 3049 3048 3048 3048 3048 3047 3047 3046 3046 3046 3045 3045 3045 3045 3044 3044 3043 3043 3042 3041 3041 3040 3039 3039 3038 3037 3036 3036 3035 3035 3034 3033 3033 3032 3032 3031 3031 3030 3030 3029 3028 3028 3027 3026 3026 3025 3024 3024 3023 3022 3021 3021 3020 3019 3018 3018 3017 3016 3016 3015 3014 3014 3013 3013 3013 3012 3012 3011 3011 3010 3010 3010 3009 3009 3008 3008
3047 3047 3046 3046 3046 3046 3046 3046 3046 3046 3046 3045 3045 3045 3045 3045 3044 3044 3043 3043 3042 3042 3042 3041 3041 3041 3040 3040 3039 3038 3037 3036 3036 3035 3034 3034 3033 3032 3031 3031 3030 3030 3029 3029 3028 3027 3027 3026 3026 3025 3024 3023 3023 3022 3021 3021 3020 3019 3019 3018 3017 3016 3015 3015 3014 3013 3012 3012 3011 3011 3010 3010 3009 3009 3008 3008 3008 3007 3007 3006 3006 3005 3005 3005 3004 3004
3044 3044 3043 3043 3043 3043 3043 3043 3043 3043 3043 3043 3042 3042 3042 3041 3041 3041 3040 3040 3039 3039 3039 3038 3038 3037 3037 3036 3036 3035 3034 3033 3032 3031 3031 3030 3029 3028 3027 3027 3026 3026 3025 3025 3024 3023 3022 3022 3021 3021 3020 3019 3019 3018 3017 3016 3016 3015 3014 3013 3012 3011 3011 3010 3009 3009 3008 3007 3007 3006 3006 3006 3005 3005 3004 3004 3004 3003 3003 3002 3002 3001 3001 3001 3000 3000
3041 3041 3041 3041 3041 3041 3041 3041 3041 3040 3040 3040 3040 3040 3039 3039 3038 3038 3037 3037 3037 3036 3036 3035 3035 3034 3034 3033 3032 3031 3030 3029 3028 3027 3027 3026 3025 3025 3024 3023 3022 3022 3021 3020 3020 3019 3018 3017 3016 3016 3015 3015 3014 3013 3013 3012 3011 3010 3009 3009 3008 3007 3006 3006 3005 3004 3004 3003 3002 3002 3002 3001 3001 3001 3000 3000 2999 2999 2998 2998 2998 2997 2997 2997 2996 2996
3038 3038 3038 3038 3038 3038 3038 3038 3038 3038 3037 3037 3037 3037 3036 3036 3036 3035 3035 3034 3034 3033 3033 3032 3032 3031 3031 3030 3029 3028 3027 3026 3025 3024 3023 3022 3022 3021 3020 3020 3019 3018 3017 3016 3015 3014 3013 3013 3012 3011 3011 3010 3010 3009 3008 3007 3006 3006 3005 3004 3003 3002 3001 3001 3000 3000 2999 2999 2999 2998 2998 2997 2997 2997 2996 2996 2995 2995 2995 2994 2994 2994 2993 2993 2993 2993
3036 3036 3036 3036 3036 3036 3036 3036 3035 3035 3035 3035 3034 3034 3034 3033 3033 3032 3032 3031 3031 3031 3030 3029 3029 3028 3027 3026 3026 3025 3023 3022 3021 3021 3020 3019 3018 3018 3017 3016 3015 3014 3013 3012 3011 3010 3009 3008 3007 3007 3006 3006 3005 3004 3003 3003 3002 3001 3000 2999 2998 2998 2997 2996 2996 2996 2995 2995 2995 2994 2994 2994 2993 2993 2992 2992 2991 2991 2991 2991 2990 2990 2990 2990 2990 2990
3034 3034 3034 3034 3033 3033 3033 3032 3032 3032 3032 3032 3031 3031 3031 3030 3030 3029 3029 3028 3028 3027 3027 3026 3026 3025 3025 3024 3023 3021 3021 3019 3018 3017 3016 3016 3015 3014 3013 3012 3011 3010 3008 3007 3006 3006 3005 3004 3003 3002 3001 3001 3000 2999 2998 2998 2997 2996 2995 2995 2994 2993 2993 2992 2992 2992 2991 2991 2991 2991 2990 2990 2989 2989 2988 2988 2988 2987 2987 2987 2987 2987 2987 2986 2986 2986
3031 3031 3031 3031 3031 3031 3030 3030 3030 3030 3029 3029 3029 3028 3028 3027 3026 3026 3026 3025 3024 3024 3024 3023 3023 3023 3022 3021 3020 3019 3017 3016 3015 3014 3013 3012 3011 3010 3009 3008 3006 3005 3004 3003 3002 3001 3000 2999 2998 2998 2997 2996 2995 2995 2994 2993 2992 2991 2991 2990 2990 2990 2989 2989 2988 2988 2988 2987 2987 2986 2986 2986 2985 2985 2985 2984 2984 2984 2984 2984 2984 2983 2983 2983 2983 2983
3030 3029 3029 3029 3028 3028 3028 3027 3027 3027 3027 3026 3026 3026 3025 3025 3024 3023 3023 3022 3022 3021 3021 3021 3021 3020 3019 3018 3017 3015 3014 3012 3011 3010 3009 3007 3006 3006 3005 3003 3002 3001 3000 2999 2998 2997 2996 2995 2994 2993 2992 2992 2991 2990 2989 2989 2988 2988 2987 2987 2986 2986 2986 2985 2985 2984 2984 2984 2983 2983 2982 2982 2982 2981 2981 2981 2981 2981 2980 2980 2980 2980 2979 2979 2979 2979
3027 3027 3027 3026 3026 3026 3026 3025 3025 3024 3024 3023 3023 3023 3023 3022 3021 3021 3021 3020 3020 3019 3018 3018 3017 3017 3016 3015 3013 3011 3010 3008 3006 3005 3004 3003 3002 3001 3000 2999 2998 2997 2996 2995 2994 2993 2992 2991 2990 2990 2989 2988 2987 2986 2986 2986 2985 2985 2984 2983 2983 2982 2982 2982 2981 2981 2980 2980 2980 2979 2979 2979 2978 2978 2978 2977 2977 2977 2976 2976 2976 2976 2976 2976 2975 2975
3025 3025 3025 3024 3024 3023 3023 3022 3022 3021 3021 3021 3021 3020 3020 3019 3019 3019 3018 3018 3017 3016 3016 3015 3014 3013 3012 3010 3008 3006 3005 3003 3002 3001 3000 2999 2998 2997 2996 2995 2994 2993 2992 2991 2991 2990 2989 2988 2987 2986 2986 2985 2984 2984 2983 2983 2982 2981 2981 2981 2980 2979 2979 2978 2978 2977 2977 2976 2976 2976 2976 2975 2975 2975 2974 2974 2973 2973 2973 2973 2972 2972 2972 2971 2971 2971
3023 3023 3022 3022 3022 3021 3021 3020 3019 3019 3018 3018 3018 3017 3016 3016 3016 3015 3015 3014 3014 3013 3012 3011 3010 3008 3007 3005 3003 3001 3000 2999 2998 2997 2996 2996 2995 2993 2992 2991 2990 2990 2989 2988 2987 2986 2986 2985 2984 2984 2983 2983 2982 2981 2981 2980 2980 2979 2978 2978 2977 2976 2976 2975 2975 2974 2974 2974 2973 2973 2972 2972 2972 2971 2971 2971 2970 2970 2969 2969 2969 2968 2968 2968 2967 2967
3021 3021 3020 3020 3019 3018 3018 3017 3017 3016 3016 3015 3015 3014 3013 3013 3012 3011 3011 3010 3009 3008 3007 3006 3005 3004 3003 3001 2998 2996 2996 2995 2994 2994 2993 2992 2991 2990 2989 2988 2987 2986 2986 2986 2985 2984 2983 2983 2982 2981 2981 2981 2980 2979 2978 2978 2977 2976 2976 2975 2974 2974 2973 2973 2972 2972 2971 2971 2970 2970 2969 2969 2969 2968 2968 2967 2967 2966 2966 2966 2966 2965 2965 2964 2964 2964
3018 3018 3017 3017 3016 3016 3015 3015 3014 3014 3013 3012 3011 3011 3010 3009 3008 3008 3007 3006 3004 3003 3003 3001 3001 3000 2998 2996 2994 2992 2991 2991 2991 2991 2990 2989 2987 2986 2986 2985 2984 2984 2984 2983 2982 2981 2981 2981 2980 2980 2979 2978 2978 2977 2976 2976 2975 2974 2973 2973 2972 2971 2971 2970 2970 2969 2968 2968 2967 2967 2966 2966 2966 2965 2965 2964 2964 2964 2963 2963 2962 2962 2962 2961 2961 2961
3016 3015 3015 3014 3014 3013 3012 3012 3011 3011 3010 3009 3008 3007 3006 3005 3004 3003 3002 3001 3000 2999 2998 2997 2996 2996 2995 2992 2990 2989 2988 2987 2987 2987 2987 2986 2984 2983 2983 2983 2982 2982 2982 2981 2981 2980 2979 2979 2978 2978 2977 2976 2976 2975 2974 2974 2973 2972 2971 2971 2970 2969 2968 2968 2967 2966 2966 2965 2965 2964 2964 2963 2963 2962 2962 2961 2961 2961 2960 2960 2959 2959 2959 2958 2958 2958
3013 3012 3012 3011 3011 3010 3009 3009 3008 3007 3006 3006 3005 3003 3002 3001 3000 2999 2998 2997 2996 2995 2994 2994 2993 2992 2991 2989 2987 2986 2985 2984 2984 2984 2985 2984 2982 2981 2981 2981 2981 2981 2981 2980 2979 2978 2978 2977 2977 2976 2976 2975 2974 2973 2973 2972 2971 2970 2969 2969 2968 2967 2966 2966 2965 2964 2963 2963 2962 2961 2961 2961 2960 2960 2959 2959 2958 2958 2957 2957 2956 2956 2956 2955 2955 2955
3011 3010 3009 3009 3008 3007 3006 3005 3004 3004 3003 3002 3001 3000 2999 2997 2996 2995 2994 2993 2993 2992 2991 2990 2989 2989 2988 2986 2984 2983 2983 2982 2982 2982 2983 2982 2981 2980 2980 2980 2979 2979 2979 2978 2977 2977 2976 2976 2976 2975 2974 2973 2973 2972 2971 2970 2969 2968 2967 2966 2966 2965 2964 2963 2962 2961 2961 2960 2959 2959 2958 2958 2957 2957 2956 2956 2956 2955 2954 2954 2953 2953 2953 2952 2952 2951
3008 3007 3006 3006 3005 3004 3003 3002 3001 3000 2999 2998 2997 2996 2995 2994 2993 2992 2991 2990 2990 2989 2988 2987 2986 2985 2985 2984 2982 2981 2981 2981 2981 2981 2981 2981 2980 2979 2979 2978 2978 2978 2977 2977 2976 2975 2975 2974 2974 2973 2973 2972 2971 2970 2969 2968 2967 2966 2966 2965 2964 2963 2962 2961 2960 2959 2958 2957 2957 2956 2955 2955 2954 2954 2953 2953 2952 2952 2951 2951 2951 2950 2949 2949 2948 2948
3005 3004 3003 3002 3001 3001 3000 2999 2998 2997 2996 2995 2994 2993 2992 2991 2990 2989 2988 2987 2986 2986 2985 2984 2983 2983 2982 2981 2980 2980 2980 2980 2980 2980 2980 2980 2979 2978 2977 2977 2976 2976 2976 2975 2974 2974 2973 2973 2972 2972 2971 2970 2969 2968 2967 2966 2966 2965 2964 2962 2961 2961 2960 2958 2957 2956 2956 2955 2954 2953 2953 2952 2951 2951 2950 2950 2949 2949 2948 2948 2947 2947 2946 2946 2945 2945
3001 3000 2999 2998 2998 2997 2996 2996 2994 2993 2992 2991 2991 2990 2989 2988 2987 2986 2986 2985 2984 2983 2982 2982 2981 2981 2980 2980 2979 2979 2979 2978 2978 2978 2978 2978 2977 2976 2976 2975 2975 2974 2974 2974 2973 2972 2972 2971 2971 2970 2970 2969 2968 2967 2966 2965 2964 2963 2962 2961 2960 2958 2957 2956 2955 2954 2953 2953 2952 2951 2950 2949 2949 2948 2947 2946 2946 2945 2945 2944 2944 2943 2943 2942 2942 2941
2998 2997 2996 2995 2994 2994 2993 2992 2991 2990 2989 2988 2987 2987 2986 2986 2985 2984 2983 2982 2981 2981 2981 2980 2980 2979 2979 2979 2978 2978 2977 2977 2976 2976 2976 2976 2976 2975 2974 2974 2973 2973 2973 2972 2971 2971 2971 2970 2970 2969 2968 2967 2966 2965 2964 2963 2962 2961 2960 2959 2958 2956 2956 2954 2953 2952 2951 2951 2950 2949 2948 2947 2946 2945 2944 2944 2943 2942 2941 2941 2941 2940 2939 2939 2938 2938
2995 2994 2993 2992 2991 2990 2989 2989 2987 2986 2986 2985 2985 2984 2984 2983 2983 2982 2981 2980 2980 2979 2979 2979 2979 2978 2978 2978 2977 2976 2976 2975 2974 2974 2974 2974 2974 2974 2973 2972 2972 2971 2971 2971 2970 2970 2969 2969 2968 2967 2966 2966 2965 2963 2962 2961 2960 2959 2958 2957 2956 2955 2953 2952 2951 2950 2949 2948 2947 2946 2946 2945 2944 2943 2942 2941 2940 2940 2939 2938 2937 2936 2936 2936 2935 2935
2992 2991 2990 2989 2988 2987 2986 2986 2985 2984 2983 2983 2982 2982 2981 2981 2980 2980 2979 2979 2978 2978 2978 2978 2977 2977 2976 2976 2976 2975 2974 2973 2972 2972 2972 2972 2972 2972 2972 2971 2971 2970 2970 2970 2969 2968 2968 2967 2967 2966 2965 2964 2963 2962 2961 2960 2959 2957 2956 2955 2954 2953 2951 2951 2949 2948 2947 2946 2946 2945 2944 2942 2941 2941 2940 2939 2938 2937 2936 2935 2934 2933 2933 2932 2931 2931
2989 2988 2987 2986 2986 2985 2984 2983 2982 2981 2981 2981 2980 2980 2979 2979 2978 2978 2977 2977 2977 2977 2977 2976 2976 2976 2975 2975 2974 2973 2972 2971 2971 2970 2970 2970 2971 2971 2970 2970 2969 2968 2968 2968 2967 2967 2966 2966 2965 2965 2963 2962 2961 2960 2959 2958 2957 2956 2955 2953 2952 2951 2950 2949 2947 2946 2946 2945 2944 2943 2941 2941 2939 2938 2937 2936 2935 2934 2933 2932 2931 2931 2930 2929 2928 2928
2986 2986 2985 2984 2983 2982 2981 2981 2980 2980 2979 2979 2978 2978 2977 2977 2976 2976 2976 2976 2976 2976 2975 2975 2975 2974 2974 2973 2972 2972 2971 2970 2969 2969 2968 2968 2969 2969 2968 2967 2967 2966 2966 2966 2966 2965 2965 2964 2964 2963 2962 2961 2960 2959 2957 2956 2955 2954 2953 2951 2950 2949 2948 2947 2946 2945 2944 2943 2942 2941 2940 2938 2937 2936 2935 2934 2933 2932 2931 2930 2929 2927 2926 2926 2925 2925
2983 2983 2982 2981 2981 2980 2979 2979 2978 2977 2977 2976 2976 2976 2976 2975 2975 2975 2974 2974 2974 2974 2974 2974 2973 2973 2972 2972 2971 2970 2969 2968 2967 2967 2966 2966 2966 2966 2966 2965 2965 2964 2964 2964 2964 2963 2963 2962 2962 2961 2960 2959 2958 2957 2956 2955 2953 2952 2951 2950 2948 2947 2946 2945 2944 2943 2942 2941 2940 2938 2937 2936 2935 2934 2932 2931 2930 2929 2928 2927 2926 2925 2923 2922 2922 2921
2980 2980 2979 2979 2978 2977 2977 2976 2976 2975 2975 2975 2974 2974 2974 2974 2973 2973 2973 2973 2973 2972 2972 2972 2971 2971 2971 2970 2970 2969 2968 2967 2966 2965 2965 2965 2965 2964 2964 2963 2962 2961 2961 2961 2961 2961 2961 2960 2960 2959 2958 2957 2956 2955 2954 2953 2952 2951 2949 2948 2947 2946 2944 2943 2942 2941 2940 2938 2937 2936 2935 2934 2932 2931 2930 2929 2927 2926 2925 2924 2923 2922 2921 2920 2919 2918
2977 2976 2976 2976 2975 2975 2975 2974 2974 2973 2973 2973 2972 2972 2972 2972 2972 2972 2971 2971 2971 2971 2971 2970 2970 2969 2969 2969 2968 2967 2966 2965 2964 2964 2963 2963 2963 2962 2962 2961 2960 2959 2959 2958 2959 2959 2959 2958 2957 2956 2956 2955 2954 2953 2952 2951 2950 2949 2947 2946 2945 2944 2942 2941 2940 2938 2937 2936 2935 2934 2933 2931 2930 2929 2927 2926 2925 2924 2923 2921 2920 2919 2918 2917 2916 2916
2975 2974 2973 2973 2973 2972 2972 2972 2971 2971 2971 2971 2971 2971 2971 2971 2971 2970 2970 2970 2969 2969 2969 2968 2968 2968 2967 2967 2967 2966 2965 2964 2963 2962 2961 2961 2961 2961 2960 2959 2958 2957 2956 2956 2956 2956 2957 2957 2956 2955 2954 2953 2952 2951 2950 2949 2948 2947 2946 2945 2943 2942 2941 2939 2938 2936 2935 2934 2933 2932 2931 2929 2928 2926 2925 2924 2923 2921 2920 2919 2917 2916 2915 2914 2913 2913
2973 2972 2971 2971 2971 2970 2970 2970 2970 2970 2970 2970 2970 2970 2969 2969 2969 2969 2968 2968 2968 2967 2967 2967 2966 2966 2966 2965 2965 2964 2963 2962 2961 2960 2960 2959 2959 2959 2958 2957 2956 2955 2954 2953 2952 2952 2953 2954 2954 2953 2952 2951 2950 2949 2948 2947 2946 2945 2943 2942 2941 2940 2939 2937 2936 2934 2933 2932 2931 2930 2928 2927 2926 2924 2923 2921 2920 2919 2918 2916 2915 2913 2912 2911 2911 2910
2971 2970 2970 2970 2969 2969 2969 2968 2968 2968 2968 2968 2968 2968 2968 2968 2967 2967 2967 2966 2966 2966 2966 2965 2965 2964 2964 2963 2963 2962 2961 2960 2959 2958 2958 2957 2956 2956 2956 2955 2954 2953 2952 2951 2950 2950 2949 2950 2951 2951 2950 2949 2948 2947 2946 2945 2943 2942 2941 2940 2939 2938 2936 2935 2933 2932 2931 2930 2929 2927 2926 2925 2923 2922 2920 2919 2918 2916 2915 2914 2912 2911 2910 2909 2908 2907
2969 2968 2968 2968 2968 2967 2967 2967 2967 2967 2967 2966 2966 2966 2966 2966 2966 2966 2965 2965 2965 2964 2964 2963 2963 2962 2962 2961 2961 2960 2959 2958 2957 2956 2956 2955 2955 2954 2954 2953 2952 2951 2951 2950 2949 2948 2947 2946 2946 2947 2947 2947 2946 2945 2943 2942 2941 2940 2938 2937 2936 2935 2934 2932 2931 2929 2928 2927 2926 2925 2923 2922 2921 2919 2918 2916 2915 2914 2913 2911 2910 2909 2907 2906 2905 2904
2967 2967 2966 2966 2966 2966 2966 2966 2966 2966 2965 2965 2965 2965 2965 2965 2964 2964 2964 2963 2963 2962 2962 2961 2961 2961 2960 2960 2959 2958 2957 2956 2956 2955 2954 2953 2953 2952 2952 2951 2951 2950 2949 2948 2947 2946 2945 2944 2944 2943 2943 2943 2943 2942 2941 2940 2938 2937 2936 2935 2933 2932 2931 2929 2928 2926 2925 2924 2923 2922 2921 2919 2918 2917 2915 2914 2913 2911 2910 2909 2908 2906 2905 2903 2902 2901
2965 2965 2965 2965 2965 2965 2964 2964 2964 2964 2964 2964 2964 2964 2963 2963 2963 2962 2962 2961 2961 2961 2960 2960 2959 2958 2958 2958 2957 2957 2956 2955 2954 2953 2952 2951 2951 2951 2950 2950 2949 2948 2947 2946 2945 2944 2943 2942 2941 2940 2940 2939 2939 2939 2938 2937 2936 2934 2933 2932 2930 2929 2928 2926 2925 2923 2922 2921 2920 2919 2917 2916 2915 2914 2913 2911 2910 2909 2908 2906 2905 2904 2902 2901 2900 2898
2964 2963 2963 2963 2963 2963 2963 2963 2963 2963 2963 2962 2962 2962 2962 2961 2961 2961 2960 2960 2959 2959 2958 2958 2957 2957 2956 2956 2955 2955 2954 2953 2952 2951 2950 2950 2949 2948 2948 2947 2947 2946 2944 2943 2943 2941 2941 2940 2939 2938 2936 2936 2935 2935 2935 2934 2933 2931 2930 2929 2928 2926 2925 2923 2922 2921 2919 2918 2917 2916 2915 2913 2912 2911 2910 2909 2907 2906 2905 2904 2902 2901 2900 2899 2897 2896
2962 2962 2961 2961 2961 2961 2961 2961 2961 2961 2961 2961 2961 2961 2961 2960 2960 2959 2959 2958 2958 2957 2957 2956 2956 2955 2955 2954 2954 2953 2952 2951 2951 2949 2948 2947 2947 2946 2946 2945 2944 2943 2942 2941 2940 2939 2938 2936 2936 2935 2934 2933 2932 2931 2931 2931 2930 2929 2928 2926 2925 2924 2922 2921 2919 2918 2916 2915 2914 2913 2912 2910 2909 2908 2907 2906 2905 2903 2902 2901 2900 2899 2897 2896 2895 2894
2960 2960 2960 2960 2960 2960 2960 2960 2960 2960 2960 2960 2960 2959 2959 2958 2958 2957 2957 2956 2956 2956 2955 2955 2954 2954 2953 2953 2952 2951 2950 2949 2948 2947 2946 2946 2945 2944 2943 2942 2942 2941 2940 2938 2937 2936 2935 2934 2932 2931 2931 2930 2929 2928 2927 2927 2926 2926 2925 2924 2923 2921 2920 2919 2917 2916 2914 2912 2911 2910 2909 2907 2906 2905 2904 2903 2902 2901 2900 2898 2897 2896 2895 2894 2892 2891
2959 2959 2959 2959 2959 2959 2959 2959 2959 2959 2959 2958 2958 2958 2957 2957 2956 2956 2956 2955 2955 2954 2954 2953 2953 2952 2952 2951 2950 2950 2949 2947 2946 2946 2944 2943 2942 2941 2941 2940 2939 2938 2937 2936 2935 2933 2932 2931 2930 2929 2927 2927 2926 2926 2925 2924 2923 2922 2921 2921 2920 2919 2918 2916 2915 2913 2911 2910 2908 2907 2906 2905 2903 2902 2901 2900 2899 2898 2897 2896 2895 2893 2892 2891 2890 2889
2957 2957 2957 2957 2957 2957 2957 2957 2957 2957 2957 2957 2956 2956 2956 2955 2955 2954 2954 2954 2953 2953 2952 2952 2951 2951 2950 2950 2949 2948 2947 2946 2945 2944 2942 2941 2940 2939 2938 2937 2936 2936 2935 2934 2932 2931 2930 2929 2927 2926 2925 2924 2923 2922 2922 2922 2921 2920 2918 2917 2916 2916 2915 2914 2912 2911 2909 2907 2906 2904 2903 2902 2901 2900 2899 2897 2896 2895 2894 2893 2892 2891 2889 2888 2887 2886
2956 2956 2956 2956 2956 2956 2956 2956 2956 2956 2956 2955 2955 2955 2954 2954 2953 2953 2952 2952 2951 2951 2951 2950 2950 2949 2949 2948 2947 2946 2945 2944 2943 2942 2941 2940 2938 2937 2936 2935 2934 2933 2932 2931 2930 2929 2928 2926 2925 2924 2923 2921 2920 2920 2919 2919 2918 2917 2915 2914 2912 2912 2912 2911 2910 2908 2906 2905 2903 2901 2900 2899 2898 2897 2896 2895 2894 2892 2891 2890 2889 2888 2886 2885 2884 2883
2955 2955 2955 2955 2955 2955 2955 2955 2955 2954 2954 2954 2953 2953 2952 2952 2952 2951 2951 2951 2950 2949 2949 2948 2948 2947 2947 2946 2946 2945 2943 2942 2941 2940 2939 2938 2936 2935 2934 2933 2932 2931 2930 2929 2928 2927 2926 2924 2923 2922 2921 2919 2918 2917 2916 2916 2916 2915 2913 2911 2910 2909 2909 2909 2908 2906 2904 2902 2901 2899 2897 2896 2895 2894 2893 2892 2891 2890 2889 2887 2886 2885 2884 2883 2881 2881
2954 2954 2954 2954 2954 2954 2953 2953 2953 2953 2952 2952 2952 2951 2951 2950 2950 2950 2949 2949 2948 2947 2947 2946 2946 2945 2945 2945 2944 2943 2942 2941 2940 2938 2937 2936 2935 2933 2932 2931 2930 2928 2927 2926 2925 2925 2924 2922 2921 2920 2919 2917 2916 2915 2914 2914 2913 2912 2911 2909 2907 2906 2905 2905 2905 2904 2902 2900 2898 2896 2895 2893 2892 2891 2890 2890 2889 2887 2886 2885 2884 2883 2882 2881 2879 2878
2952 2952 2952 2952 2952 2952 2952 2952 2951 2951 2951 2951 2950 2950 2949 2949 2948 2948 2947 2947 2946 2946 2945 2944 2944 2943 2943 2942 2942 2941 2940 2939 2938 2937 2936 2934 2933 2931 2930 2929 2927 2926 2925 2924 2923 2922 2921 2921 2919 2918 2916 2915 2914 2912 2911 2911 2910 2909 2908 2907 2905 2904 2902 2901 2901 2900 2899 2897 2896 2894 2892 2891 2889 2888 2887 2887 2886 2885 2884 2883 2882 2881 2880 2878 2877 2876
2951 2951 2951 2951 2951 2951 2951 2950 2950 2950 2949 2949 2948 2948 2947 2947 2946 2946 2945 2945 2944 2943 2943 2942 2941 2941 2941 2940 2940 2939 2938 2937 2936 2935 2934 2932 2931 2930 2928 2927 2926 2924 2923 2922 2921 2920 2919 2918 2917 2916 2914 2913 2911 2910 2909 2908 2907 2906 2905 2904 2903 2901 2900 2899 2898 2897 2895 2894 2893 2892 2890 2888 2887 2886 2885 2884 2883 2882 2881 2881 2880 2878 2877 2876 2875 2874
2950 2950 2950 2949 2949 2949 2949 2949 2948 2948 2948 2947 2947 2946 2946 2945 2944 2944 2943 2942 2942 2941 2941 2940 2939 2939 2938 2938 2937 2936 2936 2935 2934 2933 2932 2930 2929 2927 2926 2925 2923 2922 2921 2920 2919 2917 2916 2915 2914 2913 2911 2910 2909 2908 2907 2906 2904 2903 2902 2901 2900 2899 2898 2897 2896 2894 2892 2891 2890 2889 2887 2886 2884 2883 2881 2881 2880 2880 2879 2878 2877 2876 2875 2874 2873 2872
2948 2948 2948 2948 2948 2947 2947 2947 2946 2946 2946 2946 2945 2944 2944 2943 2942 2942 2941 2941 2940 2939 2938 2938 2937 2936 2936 2935 2934 2934 2933 2932 2931 2931 2930 2928 2927 2925 2924 2923 2921 2920 2919 2917 2916 2915 2914 2913 2911 2910 2909 2907 2906 2905 2905 2904 2902 2900 2899 2898 2897 2896 2895 2894 2893 2892 2890 2888 2887 2886 2884 2883 2881 2880 2878 2877 2876 2876 2876 2875 2874 2873 2872 2871 2870 2870
2947 2947 2946 2946 2946 2946 2946 2945 2945 2945 2944 2944 2943 2943 2942 2941 2941 2940 2939 2938 2938 2937 2936 2936 2935 2934 2933 2933 2932 2931 2930 2930 2929 2928 2927 2926 2925 2923 2922 2921 2919 2918 2916 2915 2914 2913 2911 2910 2909 2908 2906 2905 2904 2902 2902 2901 2900 2898 2897 2896 2895 2893 2892 2891 2890 2889 2887 2886 2884 2883 2881 2880 2878 2876 2875 2873 2873 2872 2872 2871 2871 2870 2869 2868 2867 2867
2945 2945 2945 2945 2944 2944 2944 2943 2943 2943 2942 2942 2941 2941 2940 2940 2939 2938 2937 2936 2936 2935 2934 2933 2933 2932 2931 2931 2930 2929 2928 2927 2926 2925 2924 2923 2922 2921 2919 2918 2917 2915 2914 2913 2911 2910 2909 2908 2907 2906 2905 2903 2901 2900 2899 2898 2897 2896 2895 2893 2892 2891 2889 2888 2887 2886 2884 2882 2881 2880 2878 2876 2874 2873 2871 2870 2869 2868 2868 2868 2868 2867 2866 2865 2864 2864
2944 2944 2943 2943 2943 2942 2942 2942 2941 2941 2941 2940 2940 2939 2938 2938 2937 2936 2935 2934 2933 2932 2932 2931 2931 2930 2929 2928 2927 2926 2925 2925 2924 2923 2922 2921 2919 2918 2917 2915 2914 2913 2911 2910 2909 2907 2906 2905 2904 2904 2903 2901 2899 2897 2896 2895 2894 2893 2892 2891 2889 2888 2886 2885 2883 2882 2881 2879 2877 2876 2875 2873 2871 2870 2868 2866 2865 2864 2864 2864 2864 2864 2863 2862 2861 2861
2942 2942 2942 2941 2941 2941 2941 2940 2940 2939 2939 2938 2938 2937 2937 2936 2935 2934 2933 2932 2931 2931 2930 2929 2928 2927 2927 2926 2925 2924 2923 2922 2921 2920 2919 2918 2917 2915 2914 2913 2911 2910 2908 2907 2906 2904 2903 2902 2901 2901 2901 2900 2897 2895 2893 2891 2891 2890 2889 2888 2887 2885 2883 2881 2880 2879 2877 2876 2874 2872 2871 2870 2868 2867 2865 2863 2862 2861 2860 2860 2860 2861 2860 2860 2859 2858